Location: Montbazon
(47.2835°N, 0.6999°E)
Time: 07:17:36
(UTC+00:00)

NOSS 2-1 (D) - Pass Details

Date: 08 November 2025
Orbit: 374 x 1680 km, 63.3° (Epoch: 12 December)

Event Time Altitude Azimuth Distance (km) Brightness Sun altitude
Exits shadow 06:02:30 12° 288° (WNW) 1,378 4.7 -8.6°
Maximum altitude 06:04:11 16° 323° (NW) 1,117 4.4 -8.3°
Drops below altitude 10° 06:06:12 10° 6° (N) 1,403 5.3 -8.0°
Sets 06:08:41 0° 30° (NNE) 2,250 6.6 -7.6°
